KD8UYA Weather Reports


Display with metric or nautical units.
time (UTC)temp
F
wind
direction
speed
MPH
gust
MPH
rain 1hr
in
rain 24hr
in
rain mn
in
humidity
%
barometer
mb
20260831084511 71 230 0.0 4.0 0.00 0.01 0.00 88 1015.1
20260831083010 72 281 2.0 4.0 0.00 0.01 0.00 88 1015.1
20260831081511 72 259 0.0 3.0 0.00 0.01 0.00 88 1015.1
20260831080008 72 220 1.0 3.0 0.00 0.01 0.00 88 1015.1
20260831074507 71 340 0.0 4.0 0.00 0.01 0.00 89 1015.1
20260831073005 71 260 1.0 4.0 0.00 0.01 0.00 90 1015.2
20260831071503 71 280 1.0 6.0 0.00 0.01 0.00 91 1015.3
20260831070002 70 243 0.0 0.0 0.00 0.01 0.00 92 1015.4
20260831064601 70 271 0.0 6.0 0.00 0.01 0.00 93 1015.4
20260831063102 70 221 0.0 0.0 0.00 0.01 0.00 93 1015.6
20260831061606 70 122 0.0 0.0 0.00 0.01 0.00 94 1015.7
20260831060108 71 126 1.0 5.0 0.00 0.01 0.00 93 1015.7
20260831054558 71 111 0.0 3.0 0.00 0.01 0.00 93 1015.9
20260831053056 71 196 0.0 3.0 0.00 0.01 0.00 93 1015.8
20260831051618 71 88 0.0 0.0 0.00 0.01 0.00 93 1015.7
20260831050054 71 115 0.0 3.0 0.00 0.01 0.00 94 1015.9
20260831044555 71 119 0.0 3.0 0.00 0.01 0.00 93 1015.9
20260831043051 71 126 0.0 2.0 0.00 0.01 0.00 93 1016.0
20260831041553 71 130 1.0 3.0 0.00 0.01 0.00 93 1016.0
20260831040050 71 109 0.0 6.0 0.00 0.01 0.00 94 1016.1
20260831034548 71 152 1.0 4.0 0.00 0.01 0.01 94 1016.1
20260831033049 71 135 1.0 4.0 0.00 0.01 0.01 94 1016.2
20260831031548 71 114 0.0 0.0 0.00 0.01 0.01 93 1016.3
20260831030047 71 92 0.0 0.0 0.00 0.01 0.01 93 1016.6
20260831024559 71 92 0.0 2.0 0.00 0.01 0.01 92 1016.7
20260831023044 71 88 2.0 4.0 0.00 0.01 0.01 92 1016.9
20260831021553 71 110 2.0 4.0 0.00 0.01 0.01 92 1016.8
20260831020044 71 119 0.0 2.0 0.00 0.01 0.01 92 1016.8
20260831014544 71 119 1.0 3.0 0.00 0.01 0.01 92 1017.1
20260831013042 71 124 0.0 3.0 0.00 0.01 0.01 93 1017.1
20260831011542 71 124 0.0 0.0 0.00 0.01 0.01 93 1017.2
20260831010108 71 124 0.0 0.0 0.00 0.01 0.01 93 1017.1
20260831004548 71 124 0.0 0.0 0.00 0.01 0.01 93 1016.9
20260831003038 71 124 0.0 0.0 0.00 0.01 0.01 93 1016.9
20260831001552 72 124 0.0 0.0 0.00 0.01 0.01 92 1016.8
20260831000039 72 124 0.0 0.0 0.00 0.01 0.01 91 1016.7
20260830234537 72 124 0.0 0.0 0.00 0.01 0.01 91 1016.6
20260830233036 73 124 0.0 0.0 0.00 0.01 0.01 89 1016.2
20260830231536 73 124 0.0 0.0 0.00 0.01 0.01 89 1015.9
20260830230038 74 125 0.0 0.0 0.00 0.01 0.01 87 1015.6
20260830224545 74 125 0.0 0.0 0.00 0.01 0.01 87 1015.4
20260830223033 74 125 0.0 0.0 0.00 0.01 0.01 87 1015.4
20260830221532 74 208 0.0 0.0 0.00 0.01 0.01 88 1014.9
20260830220033 73 123 0.0 5.0 0.00 0.01 0.01 87 1014.9
20260830214531 74 111 2.0 6.0 0.00 0.01 0.01 88 1014.8
20260830213028 74 182 0.0 0.0 0.00 0.01 0.01 88 1015.4
20260830211528 73 304 0.0 0.0 0.00 0.01 0.01 89 1015.4
20260830210026 73 211 0.0 0.0 0.00 0.01 0.01 89 1015.6
20260830204526 73 252 0.0 4.0 0.00 0.01 0.01 89 1015.7
20260830203023 73 231 0.0 2.0 0.00 0.01 0.01 89 1015.6
20260830201523 72 217 0.0 4.0 0.00 0.01 0.01 89 1015.6
20260830200020 72 128 0.0 0.0 0.00 0.01 0.01 87 1016.0
20260830194518 73 127 0.0 0.0 0.00 0.01 0.01 87 1016.3
20260830193017 73 121 1.0 3.0 0.00 0.01 0.01 85 1016.5
20260830191513 73 259 0.0 0.0 0.00 0.01 0.01 84 1016.8
20260830190017 74 267 0.0 2.0 0.00 0.01 0.01 81 1017.2
20260830184514 74 267 0.0 4.0 0.00 0.01 0.01 82 1017.5
20260830183013 74 277 0.0 2.0 0.00 0.01 0.01 80 1017.7
20260830181510 74 277 0.0 3.0 0.00 0.01 0.01 81 1017.7
20260830180010 74 269 0.0 4.0 0.00 0.01 0.01 80 1017.7
20260830174517 74 274 0.0 4.0 0.00 0.01 0.01 78 1017.7
20260830173005 74 293 0.0 4.0 0.00 0.01 0.01 83 1017.9
20260830171503 73 296 0.0 4.0 0.00 0.01 0.01 83 1017.9
20260830170002 72 255 1.0 6.0 0.01 0.01 0.01 84 1018.3
20260830164502 72 285 1.0 5.0 0.01 0.01 0.01 85 1018.6
20260830163105 72 277 5.0 8.0 0.01 0.01 0.01 85 1018.7
20260830161632 71 288 1.0 4.0 0.01 0.01 0.01 87 1018.6
20260830160059 71 246 0.0 3.0 0.00 0.00 0.00 88 1018.6
20260830154558 71 248 2.0 9.0 0.00 0.00 0.00 86 1018.6
20260830153056 72 282 2.0 4.0 0.00 0.00 0.00 84 1018.6
20260830151555 72 255 0.0 3.0 0.00 0.00 0.00 82 1018.3
20260830150053 72 254 0.0 0.0 0.00 0.00 0.00 83 1018.2
20260830144549 72 253 0.0 0.0 0.00 0.00 0.00 85 1017.9
20260830143050 71 253 0.0 0.0 0.00 0.00 0.00 85 1017.9
20260830141548 71 253 0.0 1.0 0.00 0.00 0.00 85 1017.7
20260830140056 71 253 0.0 2.0 0.00 0.00 0.00 84 1017.5
20260830134551 71 253 0.0 4.0 0.00 0.00 0.00 82 1017.2
20260830133045 71 236 0.0 3.0 0.00 0.00 0.00 80 1017.0
20260830131604 70 173 0.0 5.0 0.00 0.00 0.00 81 1017.0
20260830130142 70 147 1.0 5.0 0.00 0.00 0.00 80 1017.1
20260830124540 69 286 0.0 4.0 0.00 0.00 0.00 81 1017.2
20260830123039 69 281 0.0 3.0 0.00 0.00 0.00 81 1017.1
20260830121539 69 247 0.0 4.0 0.00 0.00 0.00 80 1017.2
20260830120038 69 270 0.0 4.0 0.00 0.00 0.00 80 1017.2
20260830114547 69 300 0.0 3.0 0.00 0.00 0.00 80 1017.2
20260830113040 69 119 0.0 1.0 0.00 0.00 0.00 80 1017.1
20260830111536 69 44 0.0 2.0 0.00 0.00 0.00 80 1017.0
20260830110046 69 305 0.0 0.0 0.00 0.00 0.00 81 1016.9
20260830104535 69 306 0.0 2.0 0.00 0.00 0.00 80 1017.1
20260830103034 69 308 0.0 0.0 0.00 0.00 0.00 79 1017.1
20260830101534 69 309 0.0 0.0 0.00 0.00 0.00 79 1017.2
20260830100033 69 255 0.0 2.0 0.00 0.00 0.00 78 1017.2
20260830094532 69 257 0.0 2.0 0.00 0.00 0.00 80 1017.4
20260830093033 69 227 0.0 0.0 0.00 0.00 0.00 79 1017.2
20260830091530 69 227 0.0 3.0 0.00 0.00 0.00 79 1017.3
20260830090030 68 223 0.0 2.0 0.00 0.00 0.00 80 1017.2